Theta_e
347 349 350 351 351 353 354 354 354 354 353 353 353 347 352 351 350 349 351 352 354 353 352 348 350 351 349 350 347 352 344 338 337 335 334 334 336 339 340 336 338 336 340
345 347 350 351 352 353 354 355 355 355 353 353 353 354 351 350 349 349 350 351 350 348 352 350 350 350 350 349 350 350 339 338 336 336 337 340 336 335 334 338 336 337 336
343 345 348 349 351 352 353 354 354 353 350 350 354 352 353 349 351 351 351 353 353 352 354 351 353 351 352 348 352 348 340 339 335 337 338 340 337 336 336 336 334 333 332
342 344 346 348 349 351 352 353 354 352 347 343 355 352 349 352 349 351 351 350 351 351 351 348 343 349 349 354 349 339 341 338 336 335 338 338 336 338 339 334 332 330 329
341 343 345 347 347 349 351 351 352 350 346 338 346 354 352 351 351 351 351 351 352 353 353 350 351 348 352 349 344 345 337 337 336 335 331 331 336 333 331 330 329 324 325
340 342 344 345 347 348 349 351 351 348 342 341 337 348 354 349 354 351 352 353 352 352 352 351 353 355 351 346 345 342 336 337 336 336 335 338 333 332 329 328 326 326 325
342 342 344 345 347 347 348 349 349 350 342 339 337 337 342 354 350 354 351 353 354 353 353 353 352 350 348 346 345 335 336 337 338 339 340 329 331 330 327 326 326 325 325
345 343 345 346 346 346 347 348 350 350 349 341 339 338 342 344 355 346 355 358 351 353 352 353 352 351 343 343 343 334 337 339 340 342 335 326 327 328 327 326 325 327 325
345 345 344 347 348 348 347 348 349 351 350 349 344 342 342 342 344 345 344 349 356 354 351 352 351 351 346 346 339 334 339 340 342 341 334 331 331 327 327 326 326 324 325
343 346 345 344 347 349 349 349 349 351 351 350 349 344 343 341 340 344 347 349 347 351 356 355 353 349 349 346 341 338 342 342 342 340 332 331 329 327 328 327 324 325 327
342 343 347 346 345 346 349 350 351 350 352 353 352 350 345 342 342 343 347 348 355 355 354 355 354 354 348 347 342 339 342 342 340 332 328 332 331 329 328 326 326 323 323
339 340 344 348 348 346 346 348 350 351 351 354 355 354 352 348 345 345 343 349 355 357 357 356 354 354 349 344 343 340 343 342 337 334 333 332 330 328 328 327 325 322 324
338 340 340 341 349 349 347 346 347 348 349 351 355 357 356 356 353 355 352 352 355 359 357 355 356 354 349 345 343 342 343 341 335 333 333 332 331 329 328 324 321 322 324
336 340 343 342 345 348 349 348 347 347 348 351 354 357 356 356 357 361 362 362 361 359 359 359 357 352 350 346 344 344 343 337 333 334 334 331 331 331 323 322 322 323 320
338 342 345 348 348 348 348 350 350 349 350 352 355 358 358 358 363 363 362 361 361 361 360 360 356 351 349 347 344 344 340 335 334 335 332 332 331 325 323 322 322 321 318
336 337 345 349 349 351 350 351 353 352 352 353 355 359 360 360 361 363 362 361 361 358 357 354 354 352 348 344 344 341 336 334 334 332 332 332 328 325 323 322 316 313 319
336 335 339 345 350 350 352 352 353 355 355 356 358 359 361 362 363 362 362 360 358 357 356 355 351 349 346 344 340 338 333 328 327 331 330 331 327 321 320 317 316 311 316
336 336 339 346 351 352 352 353 353 354 357 359 360 359 361 362 363 362 361 359 358 356 355 353 349 348 344 343 339 333 327 320 323 329 331 328 322 321 320 318 312 310 313
334 337 338 351 351 356 355 356 357 357 358 360 359 361 363 363 363 361 360 358 357 354 350 349 346 344 343 340 334 331 320 323 330 332 328 323 322 321 318 314 306 309 310
333 336 337 344 357 359 360 359 361 362 362 363 365 365 365 361 363 363 355 355 353 351 348 346 343 342 338 336 332 322 322 327 328 328 323 322 320 318 310 305 307 307 307
340 340 344 356 359 360 361 362 364 364 365 366 366 362 356 352 344 344 351 349 349 350 344 340 338 335 334 326 328 321 324 325 325 324 321 320 318 307 305 307 308 308 309
352 352 353 356 359 360 361 363 362 364 365 362 350 347 343 344 353 344 343 344 347 342 339 338 337 337 334 330 327 324 326 326 325 320 319 314 308 308 308 309 310 311 308
353 355 359 362 363 364 363 363 362 360 359 351 350 352 351 349 349 350 348 345 342 340 337 337 338 336 333 331 330 326 327 325 322 318 310 310 309 308 308 309 310 310 304
360 362 362 361 361 359 359 357 355 354 353 354 353 348 345 346 350 348 346 345 343 341 339 338 338 334 334 334 331 325 323 320 318 312 311 310 309 309 308 308 309 308 304
357 356 355 355 355 354 353 352 350 348 343 345 347 343 339 340 344 346 344 344 342 340 339 337 336 334 334 332 328 324 322 319 313 309 311 310 309 308 308 308 308 307 306
353 352 352 352 351 347 347 346 347 348 340 336 338 341 336 339 342 345 344 341 340 338 339 337 336 334 333 331 327 324 322 316 309 311 310 310 309 308 307 307 308 307 306
Wind_Speed
23 24 24 24 24 24 23 24 27 25 25 22 19 17 15 11 11 10 11 12 11 10 9 9 4 7 5 9 12 7 14 8 11 18 22 14 10 1 5 13 9 13 7
26 27 27 27 27 27 28 27 27 28 27 24 20 15 12 15 12 12 15 19 19 17 15 15 14 9 12 8 12 12 13 11 11 11 16 11 8 11 13 8 11 10 16
27 30 31 31 30 30 30 30 29 28 28 25 19 21 19 17 18 18 15 13 15 14 17 17 14 15 16 8 11 14 12 13 14 6 13 7 5 19 13 10 17 18 20
29 31 33 33 32 32 32 31 29 30 27 25 24 22 27 23 23 19 17 19 20 19 16 18 17 14 12 14 15 15 13 15 15 11 7 11 15 19 22 20 21 19 23
30 32 35 36 34 32 32 31 32 31 31 28 29 26 25 21 20 19 16 17 16 16 18 19 16 15 18 15 14 15 16 15 14 13 14 11 11 13 17 20 25 27 25
30 32 34 35 37 34 34 34 34 34 32 31 30 31 28 26 22 20 20 21 21 24 23 20 18 22 21 18 17 16 18 18 15 14 11 8 11 13 16 19 23 23 28
34 34 36 39 39 39 38 37 37 36 34 35 33 33 32 29 26 23 22 20 19 18 22 19 20 24 24 19 17 15 16 16 14 13 12 12 11 11 16 20 23 26 28
33 37 39 40 42 42 41 41 40 40 36 35 37 34 33 34 30 28 26 20 23 17 18 23 25 25 24 19 18 16 18 13 13 10 14 14 10 11 15 19 25 29 26
32 36 38 41 41 42 45 44 41 42 40 37 36 38 35 34 35 32 28 29 21 18 22 27 30 30 19 16 18 17 17 10 9 12 10 12 11 12 17 17 21 28 31
32 35 38 40 42 41 43 44 43 42 42 40 38 37 38 35 32 32 31 29 27 29 22 28 28 26 18 18 16 20 11 13 15 13 9 14 15 16 14 19 21 19 26
29 34 40 43 45 43 42 43 44 45 42 43 42 39 39 37 36 34 35 32 29 26 29 35 35 27 18 18 22 20 15 17 16 13 12 9 15 16 21 21 19 26 26
23 28 37 42 44 44 43 43 43 44 45 43 43 41 38 37 37 37 35 35 32 32 35 32 31 27 19 18 21 18 11 12 13 9 9 14 13 19 22 20 27 21 24
1 5 9 12 41 45 45 44 45 46 44 44 43 42 39 36 36 35 33 31 32 30 33 33 30 27 20 19 20 15 12 14 12 10 11 14 14 18 19 27 26 26 23
6 5 9 13 12 39 43 44 43 44 43 43 43 42 40 38 37 33 30 28 26 26 28 28 28 24 19 19 17 11 12 14 9 8 12 13 14 18 23 25 24 25 31
11 12 11 11 12 22 36 40 39 38 39 40 40 41 37 35 32 31 30 27 24 24 25 26 26 20 22 19 14 12 15 10 7 12 12 11 17 19 19 24 26 29 31
12 8 10 12 15 16 26 31 31 35 36 37 39 36 33 31 31 28 23 22 24 22 24 26 21 20 17 12 13 16 11 10 12 9 11 15 16 18 25 25 25 24 22
18 14 21 20 21 24 24 28 28 28 32 36 36 33 31 27 23 24 23 24 24 24 23 21 20 17 15 13 17 17 15 16 9 10 13 18 17 25 26 26 29 24 19
9 12 4 18 21 25 28 26 28 32 30 32 32 29 27 24 25 26 25 23 21 18 17 16 14 16 15 15 13 14 13 11 11 10 11 20 21 24 26 27 31 24 20
13 14 9 9 20 21 23 24 25 28 30 29 26 23 24 26 23 21 19 15 16 15 15 12 13 11 15 14 11 11 10 7 9 9 13 17 20 23 24 29 26 22 21
19 17 13 11 21 19 21 23 22 22 22 21 23 27 25 20 19 18 14 13 10 10 10 10 12 12 10 10 11 9 9 5 7 11 13 16 19 21 27 23 20 22 24
15 12 10 18 18 20 22 22 22 21 21 24 26 24 22 20 19 16 15 17 19 18 15 16 14 15 11 11 15 10 11 10 8 10 10 16 22 22 16 16 19 20 21
8 11 14 16 17 19 22 23 20 22 24 21 21 19 18 18 17 18 18 13 16 13 16 12 14 16 16 13 14 10 11 10 10 8 12 16 15 14 14 16 19 19 22
16 17 20 21 20 20 21 25 25 25 23 20 21 21 19 13 13 12 10 16 13 10 12 13 18 18 14 11 12 13 10 8 8 7 12 12 14 15 16 14 16 18 18
19 20 21 21 22 22 27 30 28 25 24 24 22 17 18 16 16 10 11 12 15 15 14 18 19 17 16 13 8 6 3 2 7 12 7 9 11 11 12 14 15 20 17
20 22 24 24 24 23 23 26 25 22 21 19 18 16 15 14 16 17 15 17 16 14 15 16 17 13 13 16 8 2 3 4 9 4 5 5 7 9 11 12 16 19 18
22 23 23 23 22 22 22 21 20 20 19 18 17 15 14 15 16 19 21 19 16 16 16 14 14 10 10 14 13 5 7 5 3 5 4 5 7 9 11 11 11 15 15
Wind_Direction
194 195 197 194 195 199 205 208 202 208 211 216 225 220 209 226 216 218 226 218 225 213 237 242 261 296 308 272 301 304 332 9 316 319 343 354 354 219 288 310 311 331 273
195 194 194 196 198 200 204 211 209 207 216 216 210 219 216 215 222 227 234 246 250 243 230 241 229 226 250 267 276 286 322 349 338 326 339 337 61 305 337 344 327 302 306
197 190 192 198 199 202 208 213 213 213 219 214 217 205 213 217 225 225 223 242 257 243 234 239 238 231 250 271 281 299 312 330 343 332 326 317 287 320 333 320 319 314 324
194 193 193 197 201 202 212 217 220 216 221 213 204 217 209 211 223 217 235 242 248 258 255 251 246 251 257 244 270 283 310 315 323 317 265 279 305 301 308 314 317 319 310
195 195 194 198 202 205 209 219 222 223 220 218 205 214 218 223 219 230 234 240 242 245 257 256 254 254 253 257 268 279 304 313 308 291 300 311 323 302 315 320 315 313 314
195 198 200 200 202 206 206 215 224 225 221 221 215 208 225 219 221 224 222 235 238 251 255 250 237 243 252 252 262 280 305 309 302 307 311 296 298 308 312 315 312 311 311
190 195 197 197 201 204 207 209 221 227 223 220 223 218 219 226 222 214 225 224 240 251 257 257 243 248 257 265 272 285 308 300 301 308 305 305 287 306 316 315 312 309 312
195 194 197 200 203 206 208 210 214 226 229 226 226 227 224 225 229 224 220 231 234 234 260 245 261 267 259 262 271 295 310 302 305 279 302 307 318 310 315 306 318 315 314
200 197 198 202 206 207 209 211 212 224 232 232 230 231 233 229 232 235 232 226 223 232 247 254 263 271 266 266 275 295 301 283 276 275 300 308 290 308 299 325 308 313 314
196 201 200 204 206 211 213 213 214 220 232 235 235 235 236 238 236 238 238 239 237 228 240 254 257 268 260 265 271 294 288 273 262 268 262 273 295 305 326 303 319 322 311
200 202 201 205 206 206 211 215 215 217 224 235 239 238 239 239 240 238 238 240 240 242 232 246 255 263 252 267 280 277 252 256 270 276 281 294 303 317 309 325 320 307 309
200 211 204 202 201 203 207 212 215 216 219 227 235 239 239 241 242 243 243 238 241 237 241 248 256 260 248 273 278 274 252 259 276 279 282 283 301 310 324 313 309 321 312
179 313 306 289 202 202 205 209 214 217 219 222 229 234 238 239 241 241 244 246 238 239 243 249 253 256 254 272 274 262 259 256 250 265 270 291 306 320 308 311 322 324 320
222 219 273 285 283 206 205 207 213 216 217 219 225 231 234 239 240 240 241 244 244 241 238 244 258 268 254 268 264 270 260 273 263 279 274 296 317 302 316 316 324 315 319
212 204 230 255 255 221 207 206 210 212 211 213 221 228 233 237 234 234 239 240 240 235 233 234 257 250 251 252 254 235 246 264 262 257 287 306 294 324 318 319 321 323 321
242 233 215 235 228 217 209 206 210 210 211 213 216 222 230 233 230 231 227 224 228 230 235 246 241 241 243 228 233 243 258 235 251 290 299 288 321 303 309 317 319 323 327
229 244 231 223 221 219 218 204 201 206 212 212 213 219 223 225 222 217 216 218 218 224 232 236 228 226 218 219 220 237 250 248 261 270 289 300 308 316 328 328 328 328 329
239 284 291 220 229 223 223 214 210 206 205 205 206 214 219 213 210 217 219 215 225 227 227 220 223 214 224 229 241 248 254 266 289 308 294 313 322 318 316 320 324 329 332
254 261 248 256 232 218 214 206 200 204 201 200 205 202 205 204 211 211 211 212 219 219 225 202 213 211 226 243 249 263 266 291 323 309 306 319 306 305 308 319 324 329 338
268 257 255 247 204 200 200 190 189 185 185 183 184 193 199 192 190 194 196 196 205 199 205 187 184 215 243 258 278 268 268 269 292 291 318 310 305 307 318 327 334 341 342
228 224 196 182 187 190 191 178 177 174 176 185 191 195 182 186 182 168 178 186 175 179 192 212 199 195 220 245 250 244 258 265 277 294 312 300 308 320 333 345 356 353 344
156 161 164 173 173 177 172 169 181 176 178 189 175 167 172 164 173 175 179 204 207 185 188 192 184 207 234 230 231 241 262 279 299 303 290 311 336 356 358 0 3 355 350
146 152 153 146 153 165 176 163 161 161 168 166 153 165 162 167 178 196 182 172 183 182 196 211 216 212 230 232 247 242 260 281 301 318 328 358 6 3 4 9 353 341 356
134 136 134 142 154 167 157 153 152 165 166 162 166 171 160 155 165 173 171 170 195 195 213 223 220 222 228 236 244 225 245 293 330 335 351 7 4 356 354 2 348 347 8
131 134 138 135 136 147 155 164 162 160 158 160 155 154 150 161 175 179 188 197 203 217 219 215 225 233 207 228 220 171 196 279 317 358 33 340 348 356 357 14 358 355 16
132 132 134 135 138 145 144 145 148 156 158 152 154 156 168 180 190 195 195 195 220 214 227 219 223 210 216 211 216 239 242 294 23 62 1 356 5 7 5 10 12 356 21